When you browse on this site, cookies collect data to enhance your experience and personalize the content and advertising you see.
Visit our Privacy Policy to learn more. By continuing to use the site, you agree to this use of cookies and data.
  • In Switzerland
  • List of Countries
  • For 7 days
  • Water Temperature
  • Satellite Maps
  • Weather Map
  • Weather Widgets
  • user-avatar
    Login

    Hourly Weather Barisal

    Today, 25 April, Thursday

    Time Temperature Precipitation Wind Pressure Humidity
    00:00 +31°C° 0 mm 2 mps 755 mmHg 52%
    01:00 +31°C° 0 mm 2 mps 755 mmHg 53%
    02:00 +31°C° 0 mm 2 mps 755 mmHg 54%
    03:00 +30°C° 0 mm 2 mps 755 mmHg 55%
    04:00 +30°C° 0 mm 2 mps 755 mmHg 56%
    05:00 +30°C° 0 mm 1 mps 755 mmHg 57%
    06:00 +30°C° 0 mm 2 mps 755 mmHg 61%
    07:00 +32°C° 0 mm 1 mps 756 mmHg 53%
    08:00 +34°C° 0 mm 1 mps 756 mmHg 46%
    09:00 +36°C° 0 mm 1 mps 756 mmHg 38%
    10:00 +39°C° 0 mm 1 mps 756 mmHg 34%
    11:00 +40°C° 0 mm 1 mps 756 mmHg 30%
    12:00 +40°C° 0 mm 1 mps 757 mmHg 33%
    13:00 +41°C° 0 mm 1 mps 756 mmHg 31%
    14:00 +41°C° 0 mm 1 mps 755 mmHg 29%
    15:00 +42°C° 0 mm 2 mps 754 mmHg 27%
    16:00 +40°C° 0 mm 3 mps 754 mmHg 30%
    17:00 +40°C° 0 mm 4 mps 754 mmHg 33%
    18:00 +39°C° 0 mm 5 mps 754 mmHg 36%
    19:00 +36°C° 0 mm 5 mps 754 mmHg 41%
    20:00 +35°C° 0 mm 4 mps 754 mmHg 47%
    21:00 +34°C° 0 mm 4 mps 755 mmHg 52%
    22:00 +33°C° 0 mm 4 mps 755 mmHg 55%
    23:00 +33°C° 0 mm 4 mps 755 mmHg 59%

    Tomorrow, 26 April, Friday

    Time Temperature Precipitation Wind Pressure Humidity
    00:00 +31°C° 0 mm 3 mps 755 mmHg 63%
    01:00 +31°C° 0 mm 3 mps 754 mmHg 64%
    02:00 +30°C° 0 mm 3 mps 754 mmHg 66%
    03:00 +30°C° 0 mm 2 mps 754 mmHg 67%
    04:00 +30°C° 0 mm 2 mps 754 mmHg 68%
    05:00 +30°C° 0 mm 2 mps 754 mmHg 68%
    06:00 +30°C° 0 mm 2 mps 754 mmHg 69%
    07:00 +32°C° 0 mm 2 mps 755 mmHg 59%
    08:00 +35°C° 0 mm 2 mps 755 mmHg 49%
    09:00 +37°C° 0 mm 3 mps 755 mmHg 40%
    10:00 +39°C° 0 mm 3 mps 755 mmHg 35%
    11:00 +40°C° 0 mm 3 mps 755 mmHg 30%
    12:00 +43°C° 0 mm 4 mps 755 mmHg 26%
    13:00 +43°C° 0 mm 4 mps 754 mmHg 25%
    14:00 +43°C° 0 mm 5 mps 753 mmHg 25%
    15:00 +43°C° 0 mm 5 mps 753 mmHg 25%
    16:00 +41°C° 0 mm 6 mps 752 mmHg 30%
    17:00 +40°C° 0 mm 6 mps 752 mmHg 36%
    18:00 +38°C° 0 mm 6 mps 752 mmHg 41%
    19:00 +35°C° 0 mm 6 mps 753 mmHg 49%
    20:00 +34°C° 0 mm 5 mps 753 mmHg 58%
    21:00 +33°C° 0 mm 5 mps 754 mmHg 66%
    22:00 +32°C° 0 mm 4 mps 754 mmHg 67%
    23:00 +32°C° 0 mm 4 mps 754 mmHg 68%

    Day after tomorrow, 27 April, Saturday

    Time Temperature Precipitation Wind Pressure Humidity
    00:00 +32°C° 0 mm 4 mps 754 mmHg 69%
    01:00 +32°C° 0 mm 4 mps 753 mmHg 71%
    02:00 +30°C° 0 mm 4 mps 753 mmHg 72%
    03:00 +30°C° 0 mm 3 mps 753 mmHg 73%
    04:00 +30°C° 0 mm 3 mps 753 mmHg 75%
    05:00 +30°C° 0 mm 3 mps 754 mmHg 77%
    06:00 +30°C° 0 mm 2 mps 754 mmHg 79%
    07:00 +33°C° 0 mm 3 mps 754 mmHg 69%
    08:00 +35°C° 0 mm 4 mps 755 mmHg 60%
    09:00 +37°C° 0 mm 5 mps 755 mmHg 50%
    10:00 +40°C° 0 mm 5 mps 755 mmHg 44%
    11:00 +41°C° 0 mm 5 mps 755 mmHg 38%
    12:00 +43°C° 0 mm 5 mps 754 mmHg 32%
    13:00 +42°C° 0 mm 6 mps 754 mmHg 33%
    14:00 +42°C° 0 mm 6 mps 753 mmHg 34%
    15:00 +43°C° 0 mm 7 mps 752 mmHg 35%
    16:00 +40°C° 0 mm 7 mps 752 mmHg 43%
    17:00 +38°C° 0 mm 7 mps 752 mmHg 51%
    18:00 +35°C° 0 mm 7 mps 752 mmHg 59%
    19:00 +34°C° 0 mm 6 mps 752 mmHg 64%
    20:00 +33°C° 0 mm 6 mps 753 mmHg 68%
    21:00 +32°C° 0 mm 6 mps 753 mmHg 73%
    22:00 +32°C° 0 mm 6 mps 753 mmHg 74%
    23:00 +32°C° 0 mm 5 mps 753 mmHg 74%

    28 April, Sunday

    Time Temperature Precipitation Wind Pressure Humidity
    00:00 +32°C° 0 mm 5 mps 753 mmHg 75%
    01:00 +32°C° 0 mm 5 mps 753 mmHg 77%
    02:00 +30°C° 0 mm 5 mps 753 mmHg 78%
    03:00 +30°C° 0 mm 5 mps 753 mmHg 79%
    04:00 +30°C° 0 mm 4 mps 753 mmHg 80%
    05:00 +30°C° 0 mm 4 mps 753 mmHg 81%
    06:00 +30°C° 0 mm 4 mps 754 mmHg 81%
    07:00 +33°C° 0 mm 5 mps 754 mmHg 73%
    08:00 +35°C° 0 mm 6 mps 755 mmHg 64%
    09:00 +36°C° 0 mm 7 mps 755 mmHg 55%
    10:00 +39°C° 0 mm 7 mps 755 mmHg 51%
    11:00 +40°C° 0 mm 7 mps 754 mmHg 46%
    12:00 +41°C° 0 mm 8 mps 754 mmHg 41%
    13:00 +41°C° 0 mm 8 mps 753 mmHg 42%
    14:00 +40°C° 0 mm 8 mps 752 mmHg 42%
    15:00 +40°C° 0 mm 8 mps 752 mmHg 43%
    16:00 +39°C° 0 mm 7 mps 752 mmHg 50%
    17:00 +36°C° 0 mm 7 mps 752 mmHg 56%
    18:00 +35°C° 0 mm 7 mps 752 mmHg 63%
    19:00 +34°C° 0 mm 7 mps 752 mmHg 68%
    20:00 +33°C° 0 mm 7 mps 753 mmHg 72%
    21:00 +32°C° 0 mm 7 mps 753 mmHg 77%
    22:00 +32°C° 0 mm 7 mps 753 mmHg 77%
    23:00 +32°C° 0 mm 7 mps 753 mmHg 78%

    29 April, Monday

    Time Temperature Precipitation Wind Pressure Humidity
    00:00 +32°C° 0 mm 6 mps 753 mmHg 79%
    01:00 +32°C° 0 mm 6 mps 753 mmHg 80%
    02:00 +32°C° 0 mm 6 mps 753 mmHg 80%
    03:00 +30°C° 0 mm 5 mps 753 mmHg 81%
    04:00 +30°C° 0 mm 5 mps 753 mmHg 81%
    05:00 +30°C° 0 mm 5 mps 754 mmHg 80%
    06:00 +32°C° 0 mm 5 mps 754 mmHg 80%
    07:00 +33°C° 0 mm 5 mps 754 mmHg 72%
    08:00 +35°C° 0 mm 6 mps 755 mmHg 65%
    09:00 +36°C° 0 mm 6 mps 755 mmHg 57%
    10:00 +38°C° 0 mm 7 mps 755 mmHg 54%
    11:00 +39°C° 0 mm 7 mps 755 mmHg 50%
    12:00 +40°C° 0 mm 8 mps 754 mmHg 46%
    13:00 +40°C° 0 mm 8 mps 753 mmHg 47%
    14:00 +40°C° 0 mm 8 mps 753 mmHg 47%
    15:00 +40°C° 0 mm 8 mps 752 mmHg 48%
    16:00 +38°C° 0 mm 7 mps 752 mmHg 53%
    17:00 +36°C° 0 mm 7 mps 752 mmHg 58%
    18:00 +35°C° 0 mm 6 mps 752 mmHg 62%
    19:00 +34°C° 0 mm 6 mps 752 mmHg 67%
    20:00 +33°C° 0 mm 6 mps 753 mmHg 72%
    21:00 +32°C° 0 mm 7 mps 753 mmHg 77%
    22:00 +32°C° 0 mm 6 mps 753 mmHg 78%
    23:00 +32°C° 0 mm 6 mps 753 mmHg 79%

    30 April, Tuesday

    Time Temperature Precipitation Wind Pressure Humidity
    00:00 +32°C° 0 mm 6 mps 753 mmHg 80%
    01:00 +32°C° 0 mm 6 mps 753 mmHg 79%
    02:00 +32°C° 0 mm 6 mps 753 mmHg 79%
    03:00 +32°C° 0 mm 6 mps 753 mmHg 78%
    04:00 +32°C° 0 mm 5 mps 753 mmHg 78%
    05:00 +32°C° 0 mm 5 mps 753 mmHg 77%
    06:00 +32°C° 0 mm 5 mps 754 mmHg 76%
    07:00 +33°C° 0 mm 5 mps 754 mmHg 71%
    08:00 +34°C° 0 mm 6 mps 754 mmHg 66%
    09:00 +35°C° 0 mm 6 mps 755 mmHg 61%
    10:00 +38°C° 0 mm 6 mps 754 mmHg 55%
    11:00 +39°C° 0 mm 7 mps 754 mmHg 50%
    12:00 +40°C° 0 mm 7 mps 754 mmHg 45%
    13:00 +40°C° 0 mm 7 mps 753 mmHg 45%
    14:00 +40°C° 0 mm 7 mps 752 mmHg 45%
    15:00 +40°C° 0 mm 7 mps 751 mmHg 46%
    16:00 +38°C° 0 mm 7 mps 752 mmHg 51%
    17:00 +36°C° 0 mm 7 mps 752 mmHg 57%
    18:00 +34°C° 0 mm 6 mps 752 mmHg 62%
    19:00 +34°C° 0 mm 7 mps 752 mmHg 67%
    20:00 +33°C° 0 mm 7 mps 753 mmHg 72%
    21:00 +32°C° 0 mm 7 mps 753 mmHg 76%
    22:00 +32°C° 0 mm 7 mps 753 mmHg 77%
    23:00 +32°C° 0 mm 7 mps 753 mmHg 78%
    Show more